Weather reports worldwide

Advertisment
Greifswalder Oie, Germany (10097): temperature & dewpoint: 11.08.2018 01:00:00 - 17.08.2018 01:00:00 (CEST)Greifswalder Oie, Germany (10097): temperature 5cm & temperature -5cm: 11.08.2018 01:00:00 - 17.08.2018 01:00:00 (CEST)Greifswalder Oie, Germany (10097): temperature -20cm & temperature -100cm: 11.08.2018 01:00:00 - 17.08.2018 01:00:00 (CEST)Greifswalder Oie, Germany (10097): water temperature: 11.08.2018 01:00:00 - 17.08.2018 01:00:00 (CEST)Greifswalder Oie, Germany (10097): wind speed & gusts: 11.08.2018 01:00:00 - 17.08.2018 01:00:00 (CEST)Greifswalder Oie, Germany (10097): wind direction: 11.08.2018 01:00:00 - 17.08.2018 01:00:00 (CEST)Greifswalder Oie, Germany (10097): reduced air pressure: 11.08.2018 01:00:00 - 17.08.2018 01:00:00 (CEST)Greifswalder Oie, Germany (10097): visibility: 11.08.2018 01:00:00 - 17.08.2018 01:00:00 (CEST)Greifswalder Oie, Germany (10097): sunshine duration: 11.08.2018 01:00:00 - 17.08.2018 01:00:00 (CEST)Greifswalder Oie, Germany (10097): precipitation: 11.08.2018 01:00:00 - 17.08.2018 01:00:00 (CEST)
Date & Time tt [°C] td [°C] tt 5cm [°C] tt -5cm [°C] tt -20cm [°C] tt -100cm [°C] tw [°C] ff [km/h] ff [kn] fx [km/h] fx [kn] dd ppp [hPa] vv [km] sd [min] rr [mm]
17.08.2018 01:00:00 22,2 17,1 20,7 22,6 24,2 19,6 22,0 13 7 27 15 SSE 1014,8 32 0 0,0
17.08.2018 00:00:00 22,5 17,8 21,2 23,0 24,6 19,6 22,2 18 10 27 15 SE 1014,7 52 0 0,0
16.08.2018 23:00:00 22,8 17,7 21,5 23,6 24,9 19,6 22,3 18 10 27 15 SE 1014,6 59 0 0,0
16.08.2018 22:00:00 23,2 17,3 21,8 24,3 25,3 19,6 22,4 19 10 26 14 SE 1014,7 70 0 0,0
16.08.2018 21:00:00 22,5 18,4 21,3 25,3 25,6 19,6 22,6 18 10 27 15 ESE 1014,8 46 10 0,0
16.08.2018 20:00:00 22,2 19,0 22,1 26,9 25,8 19,6 22,8 19 10 31 17 E 1014,7 31 60 0,0
16.08.2018 19:00:00 22,8 18,7 24,8 28,3 25,9 19,6 23,2 21 11 33 18 ESE 1014,9 24 60 0,0
16.08.2018 18:00:00 23,5 18,6 24,6 30,0 25,7 19,6 23,5 21 11 31 17 ESE 1015,3 10 60 0,0
16.08.2018 17:00:00 23,5 18,2 27,5 31,9 25,3 19,6 24,1 21 11 30 16 ESE 1015,5 19 60 0,0
16.08.2018 16:00:00 24,2 17,4 29,0 32,6 24,8 19,6 23,0 21 12 29 16 ESE 1016,0 14 60 0,0
16.08.2018 15:00:00 24,0 17,9 29,2 32,7 24,0 19,6 22,4 19 11 27 15 ESE 1016,6 11 60 0,0
16.08.2018 14:00:00 24,8 17,1 30,3 31,8 23,3 19,6 23,0 11 6 23 12 ESE 1017,3 21 60 0,0
16.08.2018 13:00:00 24,6 16,6 29,8 30,4 22,5 19,6 22,6 13 7 23 13 SE 1017,6 16 60 0,0
16.08.2018 12:00:00 24,5 16,5 28,8 28,1 21,8 19,6 22,2 10 6 19 11 SSE 1017,9 27 60 0,0
16.08.2018 11:00:00 23,1 16,8 26,5 25,5 21,4 19,6 21,8 7 4 21 11 S 1018,2 23 60 0,0
16.08.2018 10:00:00 21,6 15,4 23,8 23,2 21,1 19,7 21,4 19 11 23 12 SSW 1018,3 12 60 0,0
16.08.2018 09:00:00 20,7 16,2 22,2 21,4 21,1 19,7 21,3 19 10 23 12 SSW 1018,3 15 38 0,0
16.08.2018 08:00:00 20,5 16,2 20,6 20,5 21,1 19,7 21,2 20 11 24 13 SSW 1018,3 25 0 0,0
16.08.2018 07:00:00 20,0 16,3 19,9 20,1 21,2 19,7 21,3 16 9 19 10 SSW 1018,2 26 0 0,0
16.08.2018 06:00:00 20,1 16,4 19,7 20,1 21,3 19,7 21,5 16 9 24 13 SSW 1018,3 20 0 0,0
16.08.2018 05:00:00 20,2 16,3 19,8 20,1 21,4 19,7 21,5 16 8 22 12 SSW 1018,3 19 0 0,0
16.08.2018 04:00:00 19,8 16,2 19,4 20,1 21,6 19,7 21,7 17 9 19 10 SSW 1018,3 34 0 0,0
16.08.2018 03:00:00 19,9 15,4 19,5 20,2 21,7 19,7 21,8 16 8 19 10 SSW 1018,3 42 0 0,0
16.08.2018 02:00:00 20,1 15,6 19,7 20,2 21,9 19,7 21,9 13 7 19 11 SSW 1018,2 51 0 0,0
16.08.2018 01:00:00 20,3 16,3 19,0 20,2 22,1 19,7 21,9 15 8 18 10 SSW 1018,3 55 0 0,0
16.08.2018 00:00:00 20,5 16,3 19,7 20,3 22,4 19,7 21,9 14 7 16 9 SSW 1018,2 61 0 0,0
15.08.2018 23:00:00 20,5 15,7 18,7 20,9 22,7 19,7 22,0 12 7 14 8 SSW 1018,2 67 0 0,0
15.08.2018 22:00:00 20,8 15,7 19,7 21,7 22,9 19,7 22,0 9 5 11 6 SW 1018,2 70 0 0,0
15.08.2018 21:00:00 19,5 15,3 17,7 22,3 23,1 19,7 21,7 6 3 14 7 SW 1018,0 70 0 0,0
15.08.2018 20:00:00 20,9 14,5 20,3 23,8 23,2 19,7 21,8 11 6 20 11 WNW 1017,5 70 52 0,0
15.08.2018 19:00:00 22,0 16,5 23,7 24,9 23,2 19,7 22,4 13 7 19 10 WSW 1017,3 70 24 0,0
15.08.2018 18:00:00 21,6 16,4 22,2 25,8 23,0 19,7 22,3 16 8 20 11 WSW 1017,3 59 52 0,0
15.08.2018 17:00:00 21,0 16,0 23,6 25,7 22,8 19,7 21,7 17 9 22 12 W 1017,4 34 27 0,0
15.08.2018 16:00:00 20,2 15,7 21,2 26,4 22,4 19,7 21,6 17 9 26 14 WNW 1017,2 70 30 0,0
15.08.2018 15:00:00 20,2 15,4 21,5 25,2 22,1 19,7 21,6 22 12 46 25 WNW 1017,2 34 13 0,0
15.08.2018 14:00:00 21,4 13,6 24,3 26,2 21,6 19,7 21,6 24 13 33 18 W 1017,0 27 51 0,0
15.08.2018 13:00:00 20,4 13,5 23,2 24,8 21,3 19,7 21,4 28 15 40 21 W 1016,5 11 60 0,0
15.08.2018 12:00:00 19,6 14,7 21,7 22,4 21,1 19,7 21,2 34 18 46 25 W 1016,1 13 53 -
15.08.2018 11:00:00 19,2 14,8 20,1 21,0 21,1 19,7 21,1 40 22 - - W 1015,8 - 41 -
15.08.2018 10:00:00 19,8 15,8 20,5 20,5 21,1 19,7 20,9 - - - - - 1014,9 - 35 -
15.08.2018 09:00:00 19,3 16,1 19,5 20,0 21,3 19,7 20,8 38 21 48 26 NW 1014,1 23 20 0,0
15.08.2018 08:00:00 18,5 16,8 18,7 19,8 21,4 19,7 20,8 39 21 46 25 WNW 1013,4 51 0 0,8
15.08.2018 07:00:00 18,6 17,8 18,2 20,1 21,5 19,7 20,8 27 14 42 23 W 1012,8 1,9 0 1,7
15.08.2018 06:00:00 18,8 17,4 18,3 20,4 21,6 19,7 20,9 34 19 44 24 W 1012,3 14 0 0,0
15.08.2018 05:00:00 19,2 17,0 19,2 20,5 21,8 19,8 21,0 32 17 44 24 W 1012,0 16 0 0,0
15.08.2018 04:00:00 19,4 16,8 19,3 20,6 21,9 19,8 21,0 34 18 47 26 W 1011,8 35 0 0,0
15.08.2018 03:00:00 19,7 16,8 19,7 20,8 22,0 19,8 21,0 38 21 45 25 W 1011,4 50 0 0,0
15.08.2018 02:00:00 19,8 17,6 19,7 20,9 22,2 19,8 21,0 33 18 42 23 WNW 1011,4 36 0 0,0
15.08.2018 01:00:00 19,6 17,2 19,5 21,1 22,3 19,8 21,1 32 17 44 24 WNW 1010,9 45 0 0,1
15.08.2018 00:00:00 19,7 16,9 19,3 21,3 22,5 19,8 21,1 37 20 45 24 W 1010,4 42 0 0,0
14.08.2018 23:00:00 19,8 17,0 19,7 21,5 22,7 19,8 21,2 39 21 46 25 W 1010,0 21 0 0,1
14.08.2018 22:00:00 20,1 16,7 19,9 22,0 22,9 19,8 21,1 35 19 44 24 W 1009,6 30 0 0,1
14.08.2018 21:00:00 20,3 16,8 20,1 22,4 23,1 19,8 21,1 34 18 44 24 W 1009,2 38 0 0,0
14.08.2018 20:00:00 19,9 17,0 19,9 23,2 23,2 19,8 21,3 33 18 46 25 WSW 1008,5 46 4 0,0
14.08.2018 19:00:00 20,2 16,3 20,6 23,9 23,3 19,8 21,5 35 19 56 31 WSW 1008,5 25 10 0,1
14.08.2018 18:00:00 21,2 15,6 21,5 25,0 23,2 19,8 21,5 36 19 45 25 W 1008,1 33 23 0,0
14.08.2018 17:00:00 21,4 15,8 22,4 25,1 23,1 19,8 21,6 36 19 48 26 W 1008,0 17 5 0,0
14.08.2018 16:00:00 21,1 15,3 21,6 25,8 22,9 19,8 21,9 38 21 55 30 WSW 1007,9 27 1 0,0
14.08.2018 15:00:00 22,4 16,2 25,2 26,8 22,6 19,8 21,9 43 23 56 30 WSW 1007,8 15 34 0,0
14.08.2018 14:00:00 21,5 15,8 23,7 26,3 22,2 19,8 21,6 40 22 49 27 WSW 1007,8 14 32 0,0
14.08.2018 13:00:00 21,1 15,7 24,3 24,6 21,9 19,8 21,4 39 21 47 25 WSW 1007,4 15 12 0,0
14.08.2018 12:00:00 20,7 15,2 22,8 23,9 21,7 19,8 21,2 34 18 40 22 WSW 1007,3 14 3 0,0
14.08.2018 11:00:00 19,8 14,9 20,8 23,5 21,5 19,8 21,1 29 16 36 19 WSW 1007,2 24 32 0,0
14.08.2018 10:00:00 19,5 14,9 21,1 21,5 21,4 19,8 20,9 27 14 45 25 SW 1006,8 26 19 0,0
14.08.2018 09:00:00 18,7 15,4 19,6 20,6 21,5 19,8 20,7 37 20 48 26 WSW 1006,7 14 5 0,0
14.08.2018 08:00:00 18,8 16,2 18,7 20,1 21,6 19,8 20,5 36 19 44 24 WSW 1006,3 12 14 0,0
14.08.2018 07:00:00 19,0 16,1 18,7 20,0 21,8 19,8 20,6 28 15 39 21 WSW 1005,9 23 0 0,0
14.08.2018 06:00:00 20,1 16,1 19,3 20,2 22,0 19,8 20,7 30 16 41 22 W 1005,5 45 0 0,0
14.08.2018 05:00:00 19,6 15,8 18,9 20,4 22,2 19,8 20,8 29 15 34 18 WSW 1005,5 40 0 0,0
14.08.2018 04:00:00 20,3 15,7 19,4 20,8 22,4 19,8 20,9 23 13 29 16 SW 1005,4 41 0 0,0
14.08.2018 03:00:00 20,8 15,8 19,7 21,2 22,6 19,8 21,0 17 9 24 13 SSW 1005,5 42 0 0,0
14.08.2018 02:00:00 21,4 15,9 20,2 21,6 22,7 19,8 21,2 16 9 24 13 SW 1005,5 43 0 0,0
14.08.2018 01:00:00 21,5 17,8 20,9 22,0 22,9 19,8 21,3 20 11 23 12 SW 1005,4 30 0 0,0
14.08.2018 00:00:00 21,3 18,9 20,6 22,3 23,1 19,9 21,4 13 7 34 18 ESE 1005,7 32 0 0,0
13.08.2018 23:00:00 21,6 18,5 21,2 22,6 23,3 19,9 21,5 25 14 38 21 E 1005,6 36 0 0,0
13.08.2018 22:00:00 21,7 18,1 21,2 23,0 23,5 19,9 21,4 25 14 42 23 E 1005,6 42 0 0,0
13.08.2018 21:00:00 21,7 17,9 21,5 23,4 23,7 19,9 21,3 29 15 43 23 E 1005,9 40 0 0,0
13.08.2018 20:00:00 21,8 17,5 21,3 24,1 23,8 19,9 21,2 31 17 47 25 E 1005,8 37 0 0,0
13.08.2018 19:00:00 21,8 17,1 21,6 25,3 23,9 19,9 21,2 35 19 47 26 E 1005,7 48 0 0,0
13.08.2018 18:00:00 22,0 16,6 22,8 26,8 23,8 19,9 21,3 29 16 42 23 E 1006,4 21 9 0,0
13.08.2018 17:00:00 22,8 15,9 25,7 28,5 23,4 19,9 21,4 27 15 43 23 E 1006,8 8 60 0,0
13.08.2018 16:00:00 23,1 17,0 26,5 28,6 22,9 19,9 21,1 28 15 39 21 E 1007,2 7 59 0,0
13.08.2018 15:00:00 22,9 16,7 26,5 27,3 22,4 19,9 21,2 26 14 36 19 E 1007,8 9 47 0,0
13.08.2018 14:00:00 22,3 15,9 25,3 27,1 21,9 20,0 20,7 25 14 34 18 E 1008,2 11 30 0,0
13.08.2018 13:00:00 22,3 14,9 25,0 25,4 21,5 20,0 20,9 21 11 29 15 E 1008,5 14 30 0,0
13.08.2018 12:00:00 22,3 14,4 25,2 24,1 21,2 20,0 20,6 18 10 32 17 ESE 1009,1 16 10 0,0
13.08.2018 11:00:00 21,6 13,5 24,0 22,8 21,0 20,0 20,4 20 11 34 18 ESE 1009,2 25 4 0,0
13.08.2018 10:00:00 20,8 13,7 22,0 21,5 20,8 20,0 20,5 22 12 36 19 ESE 1009,2 34 8 0,0
13.08.2018 09:00:00 20,3 14,5 20,7 20,5 20,8 20,0 20,4 26 14 36 20 ESE 1009,3 17 8 0,0
13.08.2018 08:00:00 20,2 15,0 20,4 19,8 20,9 20,0 20,4 24 13 34 18 ESE 1009,4 26 1 0,0
13.08.2018 07:00:00 19,8 15,2 19,2 19,5 21,0 20,0 20,4 21 11 31 17 ESE 1009,5 63 0 0,0
13.08.2018 06:00:00 19,5 15,5 18,9 19,5 21,1 20,0 20,4 19 10 29 16 ESE 1009,9 54 0 0,0
13.08.2018 05:00:00 19,2 15,7 18,7 19,5 21,2 20,0 20,4 19 10 31 17 ESE 1010,2 50 0 0,0
13.08.2018 04:00:00 19,0 15,5 18,7 19,6 21,4 20,1 20,4 22 12 30 16 ESE 1010,5 48 0 0,0
13.08.2018 03:00:00 18,7 15,0 18,1 19,6 21,5 20,1 20,4 18 10 29 16 ESE 1010,9 46 0 0,0
13.08.2018 02:00:00 18,4 14,4 17,8 19,9 21,7 20,1 20,3 18 10 27 15 E 1011,3 40 0 0,0
13.08.2018 01:00:00 18,3 14,0 18,0 20,2 21,9 20,1 20,4 17 9 25 14 E 1011,9 38 0 0,0
13.08.2018 00:00:00 17,8 13,5 17,5 20,4 22,1 20,1 20,5 14 8 22 12 ENE 1012,3 31 0 0,0
12.08.2018 23:00:00 17,7 13,1 17,4 20,8 22,4 20,1 20,6 11 6 17 9 NE 1012,5 32 0 0,0
12.08.2018 22:00:00 18,1 12,4 17,7 21,3 22,6 20,1 20,6 7 4 18 10 NE 1012,9 48 0 0,0
12.08.2018 21:00:00 18,7 12,3 18,3 21,9 22,8 20,2 20,7 8 5 22 12 NNE 1013,2 49 0 0,0
12.08.2018 20:00:00 19,0 11,8 18,9 22,8 22,9 20,2 20,9 12 6 24 13 N 1013,4 70 0 0,0
12.08.2018 19:00:00 19,7 12,0 20,1 23,7 22,9 20,2 21,1 13 7 29 15 N 1013,5 70 0 0,0
12.08.2018 18:00:00 20,9 9,4 21,4 24,6 22,9 20,2 21,7 22 12 34 18 W 1013,9 58 0 0,0
12.08.2018 17:00:00 21,1 10,6 22,3 25,5 22,7 20,2 21,6 28 15 37 20 WSW 1014,4 21 2 0,0
12.08.2018 16:00:00 21,1 10,1 22,9 26,9 22,3 20,2 21,6 29 16 37 20 W 1014,9 9 54 0,0
12.08.2018 15:00:00 21,3 10,5 23,6 27,2 21,7 20,3 21,5 27 15 41 22 W 1015,3 8 59 0,0
12.08.2018 14:00:00 21,0 10,7 24,1 26,7 21,1 20,3 21,3 33 18 47 25 WSW 1015,8 4,4 60 0,0
12.08.2018 13:00:00 20,0 10,5 22,6 25,2 20,6 20,3 21,1 35 19 44 24 WSW 1016,2 6 60 0,0
12.08.2018 12:00:00 19,4 11,3 21,9 23,3 20,1 20,3 20,7 39 21 52 28 WSW 1016,8 7 60 0,0
12.08.2018 11:00:00 18,4 12,8 20,4 21,2 19,8 20,3 20,2 39 21 49 26 WSW 1016,8 8 60 0,0
12.08.2018 10:00:00 17,6 13,4 18,9 19,1 19,7 20,3 19,9 34 18 43 23 WSW 1017,0 13 55 0,0
12.08.2018 09:00:00 16,7 13,2 17,4 17,8 19,8 20,3 19,8 37 20 45 24 WSW 1017,1 16 30 0,0
12.08.2018 08:00:00 15,7 13,5 15,3 17,2 19,9 20,4 19,8 32 17 44 24 WSW 1016,9 33 14 0,0
12.08.2018 07:00:00 15,5 13,3 14,6 17,0 20,1 20,4 19,8 34 18 47 25 WSW 1017,0 46 0 0,0
12.08.2018 06:00:00 15,9 13,5 14,8 17,1 20,3 20,4 19,9 36 19 49 27 W 1016,7 40 0 0,7
12.08.2018 05:00:00 15,5 13,3 14,7 17,3 20,5 20,4 19,9 37 20 53 29 WSW 1016,7 5 0 0,0
12.08.2018 04:00:00 16,0 13,0 15,7 17,5 20,7 20,4 19,9 43 23 61 33 WSW 1016,6 66 0 0,0
12.08.2018 03:00:00 16,2 12,5 15,9 17,5 21,0 20,4 19,9 53 28 68 37 W 1016,4 62 0 0,0
12.08.2018 02:00:00 16,1 13,4 14,8 18,0 21,2 20,4 20,1 50 27 64 35 WSW 1016,5 49 0 0,2
12.08.2018 01:00:00 16,1 12,8 15,5 18,4 21,5 20,4 20,3 49 26 67 36 WSW 1016,5 55 0 0,1
12.08.2018 00:00:00 16,6 12,0 16,0 18,8 21,7 20,5 20,3 57 31 74 40 W 1016,3 58 0 0,0
11.08.2018 23:00:00 17,0 13,6 16,2 19,1 22,0 20,5 20,4 56 31 69 37 WSW 1016,5 62 0 0,0
11.08.2018 22:00:00 17,0 13,3 16,6 19,6 22,3 20,5 20,4 52 28 78 42 WSW 1016,4 59 0 0,0
11.08.2018 21:00:00 17,4 12,6 17,1 20,3 22,5 20,5 20,6 59 32 74 40 WSW 1015,7 56 3 0,0
11.08.2018 20:00:00 18,5 12,5 18,1 21,2 22,7 20,5 20,8 59 32 75 41 WSW 1015,2 43 3 0,0
11.08.2018 19:00:00 18,6 11,9 18,9 21,8 22,9 20,5 20,9 58 31 72 39 WSW 1014,9 21 34 0,0
11.08.2018 18:00:00 17,7 12,1 18,0 22,9 23,0 20,5 21,1 49 26 68 37 SW 1015,5 26 46 0,0
11.08.2018 17:00:00 17,0 12,8 18,5 23,2 23,0 20,5 21,2 51 27 98 53 SW 1015,9 6 20 0,4
11.08.2018 16:00:00 20,0 9,3 20,6 25,8 22,8 20,5 21,5 46 25 58 31 SW 1015,5 17 39 0,0
11.08.2018 15:00:00 20,1 9,8 23,2 25,2 22,5 20,6 21,4 33 18 49 27 SW 1016,2 11 30 0,0
11.08.2018 14:00:00 17,8 11,2 19,2 24,1 22,4 20,6 21,4 39 21 52 28 SW 1017,0 14 9 0,0
11.08.2018 13:00:00 18,8 11,0 19,0 24,1 22,1 20,6 21,5 43 23 55 30 WSW 1016,8 18 6 0,0
11.08.2018 12:00:00 19,6 11,7 21,0 24,5 21,8 20,6 21,5 37 20 46 25 WSW 1016,9 7 34 0,0
11.08.2018 11:00:00 20,9 11,3 22,9 22,9 21,6 20,6 21,2 34 18 46 25 WSW 1016,7 14 34 0,0
11.08.2018 10:00:00 20,3 11,2 21,3 21,4 21,5 20,6 21,1 35 19 41 22 SSW 1016,5 9 26 0,0
11.08.2018 09:00:00 19,9 12,2 20,1 20,3 21,5 20,6 21,1 23 13 43 23 S 1016,8 15 2 0,0
11.08.2018 08:00:00 20,4 13,1 19,9 19,7 21,6 20,6 20,9 21 12 38 20 S 1017,2 28 0 0,0
11.08.2018 07:00:00 20,1 12,7 19,4 19,5 21,7 20,6 21,2 20 11 40 22 S 1017,7 70 0 0,0
11.08.2018 06:00:00 19,7 11,6 19,1 19,3 21,8 20,6 21,4 24 13 44 24 S 1018,2 70 0 0,0
11.08.2018 05:00:00 20,1 11,8 19,1 19,0 22,1 20,6 21,7 19 11 30 16 S 1018,7 69 0 0,0
11.08.2018 04:00:00 19,5 11,8 17,8 19,1 22,3 20,6 21,9 16 9 29 16 S 1019,4 64 0 0,0
11.08.2018 03:00:00 19,6 12,0 18,0 19,3 22,6 20,6 21,9 19 10 26 14 SSW 1019,9 70 0 0,0
11.08.2018 02:00:00 19,5 10,8 18,0 19,7 22,9 20,6 21,9 22 12 26 14 SSW 1020,4 70 0 0,0
11.08.2018 01:00:00 19,8 11,4 18,2 20,1 23,2 20,6 22,1 21 12 27 15 SSW 1020,8 68 0 0,0

tt = temperature
td = dewpoint
tt 5cm = temperature 5cm
tt -5cm = temperature -5cm
tt -20cm = temperature -20cm
tt -100cm = temperature -100cm
tw = water temperature
ff = wind speed
fx = gusts
dd = wind direction
ppp = reduced air pressure
vv = visibility
sd = sunshine duration
rr = precipitation

Next stations